DateTime,Index
2003090600,0.0
2003090606,1225.0
2003090612,1600.0
2003090618,2025.0
2003090700,3025.0
2003090706,3600.0
2003090712,4225.0
2003090718,4900.0
2003090800,6400.0
2003090806,9025.0
2003090812,12100.0
2003090818,12100.0
2003090900,13225.0
2003090906,13225.0
2003090912,13225.0
2003090918,13225.0
2003091000,12100.0
2003091006,12100.0
2003091012,13225.0
2003091018,14400.0
2003091100,15625.0
2003091106,15625.0
2003091112,18225.0
2003091118,21025.0
2003091200,19600.0
2003091206,19600.0
2003091212,19600.0
2003091218,19600.0
2003091300,18225.0
2003091306,16900.0
2003091312,18225.0
2003091318,19600.0
2003091400,18225.0
2003091406,18225.0
2003091412,18225.0
2003091418,19600.0
2003091500,16900.0
2003091506,15625.0
2003091512,14400.0
2003091518,13225.0
2003091600,11025.0
2003091606,10000.0
2003091612,9025.0
2003091618,9025.0
2003091700,9025.0
2003091706,9025.0
2003091712,8100.0
2003091718,8100.0
2003091800,8100.0
2003091806,8100.0
2003091812,8100.0
2003091818,7225.0
2003091900,4225.0
2003091906,2500.0
2003091912,1225.0
2003091918,0.0
2003092000,0.0
